contact:dominique.lefevre@mio.osupytheas.fr, maurice.libes@osupytheas.fr, didier.mallarino@osupytheas.fr
Project:EMSO http://www.emso-fr.org/EMSO-France
Depth: 2436.0 m
Title:EMSO Ligure Ouest : Data MII capteur AQUADOPP
Date,Latitude,Longitude,X_East,Y_North,Z_Up,Amplitude_X,Amplitude_Y,Amplitude_Z,Batterie,SoundSpeed,Heading,Pitch,Roll,Pressure,TIS,Speed,Direction
, degrees North, degrees East, m.s-1, m.s-1,m.s-1, 1, 1, 1, Volt, m.s-1, degree, degree, degree, dbar, degree_C, m.s-1, degree
2021-10-26T00:04:03,42.805,6.029,-0.076,0.017,-0.032,103.0,101.0,100.0,13.4,1505.2,327.9,-0.8,1.8,2470.635,13.28,0.077,282.6
2021-10-26T00:07:03,42.805,6.029,-0.043,0.01,-0.049,103.0,101.0,101.0,13.4,1505.2,330.7,-0.7,1.8,2470.703,13.28,0.044,283.1
2021-10-26T00:10:03,42.805,6.029,-0.091,0.032,-0.028,104.0,102.0,101.0,13.4,1505.2,327.7,-0.8,1.8,2470.708,13.28,0.096,289.4
2021-10-26T00:13:03,42.805,6.029,-0.033,0.013,-0.023,102.0,101.0,102.0,13.3,1505.2,327.3,-0.7,1.8,2470.653,13.28,0.035,291.5
2021-10-26T00:16:03,42.805,6.029,-0.033,0.0,-0.026,102.0,101.0,101.0,13.4,1505.2,326.8,-0.8,1.8,2470.635,13.28,0.033,270.0
2021-10-26T00:19:03,42.805,6.029,-0.041,0.002,0.0,102.0,101.0,101.0,13.4,1505.2,329.7,-0.8,1.8,2470.627,13.28,0.041,272.8
2021-10-26T00:22:03,42.805,6.029,-0.037,0.025,-0.012,103.0,101.0,101.0,13.4,1505.2,327.8,-0.7,1.8,2470.611,13.28,0.044,304.0
2021-10-26T00:25:03,42.805,6.029,-0.037,0.022,0.023,102.0,103.0,100.0,13.4,1505.2,328.2,-0.8,1.8,2470.632,13.28,0.043,300.7
2021-10-26T00:28:03,42.805,6.029,-0.034,0.013,0.007,103.0,103.0,100.0,13.3,1505.2,330.3,-0.7,1.8,2470.626,13.28,0.036,290.9
2021-10-26T00:31:03,42.805,6.029,-0.039,0.011,-0.021,103.0,101.0,100.0,13.3,1505.2,326.9,-0.8,1.8,2470.614,13.28,0.04,285.7
2021-10-26T00:34:03,42.805,6.029,-0.057,-0.001,-0.042,102.0,102.0,100.0,13.4,1505.2,325.3,-0.8,1.8,2470.604,13.28,0.057,269.0
2021-10-26T00:37:03,42.805,6.029,-0.057,0.026,-0.027,101.0,102.0,101.0,13.4,1505.2,328.2,-0.7,1.8,2470.663,13.28,0.062,294.5
2021-10-26T00:40:03,42.805,6.029,-0.044,0.0,-0.03,102.0,102.0,100.0,13.3,1505.2,329.6,-0.7,1.8,2470.662,13.28,0.044,270.0
2021-10-26T00:43:03,42.805,6.029,-0.057,0.015,-0.011,102.0,101.0,101.0,13.4,1505.2,330.7,-0.7,1.8,2470.613,13.28,0.058,284.7
2021-10-26T00:46:03,42.805,6.029,-0.022,0.023,-0.045,101.0,102.0,101.0,13.4,1505.2,329.6,-0.8,1.8,2470.623,13.28,0.031,316.3
2021-10-26T00:49:03,42.805,6.029,-0.02,0.005,-0.014,102.0,102.0,100.0,13.3,1505.2,329.6,-0.8,1.8,2470.606,13.28,0.02,284.0
2021-10-26T00:58:03,42.805,6.029,-0.041,0.014,0.0,102.0,101.0,101.0,13.4,1505.2,328.4,-0.8,1.8,2470.664,13.28,0.043,288.9
2021-10-26T01:04:03,42.805,6.029,-0.011,0.026,0.0,104.0,103.0,103.0,13.4,1505.2,325.9,-0.8,1.8,2470.676,13.28,0.028,337.1
2021-10-26T01:07:03,42.805,6.029,-0.04,0.032,-0.004,102.0,101.0,101.0,13.4,1505.2,328.2,-0.8,1.8,2470.666,13.28,0.051,308.7
2021-10-26T01:10:03,42.805,6.029,-0.043,0.008,-0.02,101.0,102.0,101.0,13.4,1505.2,331.2,-0.8,1.8,2470.632,13.28,0.043,280.5
2021-10-26T01:13:03,42.805,6.029,-0.049,0.022,-0.015,102.0,102.0,100.0,13.3,1505.2,326.7,-0.8,1.8,2470.686,13.28,0.053,294.2
2021-10-26T01:16:03,42.805,6.029,-0.041,0.017,-0.004,102.0,102.0,101.0,13.3,1505.2,329.3,-0.7,1.8,2470.628,13.28,0.044,292.5
2021-10-26T01:19:03,42.805,6.029,-0.054,0.023,-0.024,102.0,101.0,101.0,13.4,1505.2,327.8,-0.8,1.8,2470.619,13.28,0.058,293.1
2021-10-26T01:22:03,42.805,6.029,-0.029,0.014,-0.007,102.0,100.0,100.0,13.3,1505.2,331.6,-0.7,1.8,2470.574,13.28,0.032,295.8
2021-10-26T01:25:03,42.805,6.029,-0.058,0.019,-0.032,102.0,101.0,100.0,13.4,1505.2,329.9,-0.7,1.8,2470.621,13.28,0.061,288.1
2021-10-26T01:28:03,42.805,6.029,-0.073,0.009,-0.041,101.0,103.0,100.0,13.3,1505.2,325.0,-0.8,1.8,2470.622,13.28,0.073,277.0
2021-10-26T01:31:03,42.805,6.029,-0.032,0.009,0.002,101.0,100.0,101.0,13.4,1505.2,331.6,-0.7,1.8,2470.559,13.28,0.033,285.7
2021-10-26T01:34:03,42.805,6.029,-0.049,0.013,-0.021,102.0,100.0,100.0,13.4,1505.2,324.8,-0.7,1.8,2470.576,13.28,0.05,284.9
2021-10-26T01:37:03,42.805,6.029,-0.038,0.013,-0.027,101.0,103.0,100.0,13.4,1505.2,327.0,-0.8,1.8,2470.59,13.28,0.04,288.9
2021-10-26T01:40:03,42.805,6.029,-0.046,0.024,-0.012,102.0,101.0,100.0,13.4,1505.2,328.5,-0.8,1.8,2470.585,13.28,0.051,297.6
2021-10-26T01:43:03,42.805,6.029,-0.039,0.0,0.014,100.0,102.0,101.0,13.4,1505.2,328.5,-0.8,1.9,2470.631,13.28,0.039,270.0
2021-10-26T01:46:03,42.805,6.029,-0.019,0.008,0.005,101.0,102.0,100.0,13.3,1505.2,327.7,-0.8,1.8,2470.592,13.28,0.02,292.8
2021-10-26T01:49:03,42.805,6.029,-0.06,0.012,-0.023,101.0,101.0,102.0,13.4,1505.2,331.7,-0.8,1.8,2470.605,13.28,0.061,281.3
2021-10-26T01:52:03,42.805,6.029,-0.046,0.015,-0.007,102.0,101.0,100.0,13.4,1505.2,330.8,-0.8,1.8,2470.586,13.28,0.048,288.1
2021-10-26T01:55:03,42.805,6.029,-0.038,0.014,0.001,100.0,101.0,101.0,13.3,1505.2,327.8,-0.7,1.8,2470.63,13.28,0.04,290.2
2021-10-26T01:58:03,42.805,6.029,-0.048,0.032,0.007,101.0,101.0,101.0,13.3,1505.2,328.5,-0.7,1.8,2470.586,13.28,0.057,303.7
2021-10-26T02:04:03,42.805,6.029,-0.012,0.01,-0.003,102.0,102.0,100.0,13.3,1505.2,327.5,-0.8,1.8,2470.648,13.28,0.015,309.8
2021-10-26T02:07:03,42.805,6.029,-0.024,0.008,-0.018,102.0,101.0,101.0,13.3,1505.2,326.5,-0.8,1.8,2470.616,13.28,0.025,288.4
2021-10-26T02:10:03,42.805,6.029,-0.057,0.014,-0.038,102.0,101.0,101.0,13.3,1505.2,325.9,-0.8,1.8,2470.551,13.28,0.058,283.8
2021-10-26T02:13:03,42.805,6.029,-0.048,0.017,-0.038,101.0,101.0,101.0,13.3,1505.2,331.3,-0.7,1.8,2470.637,13.28,0.05,289.5
2021-10-26T02:16:03,42.805,6.029,-0.053,0.009,-0.01,101.0,101.0,102.0,13.4,1505.2,329.4,-0.8,1.8,2470.61,13.28,0.053,279.6
2021-10-26T02:19:03,42.805,6.029,-0.033,0.015,-0.007,102.0,101.0,100.0,13.4,1505.2,330.9,-0.7,1.8,2470.585,13.28,0.036,294.4
2021-10-26T02:22:03,42.805,6.029,-0.042,0.011,-0.019,102.0,101.0,100.0,13.4,1505.2,331.3,-0.8,1.9,2470.605,13.28,0.043,284.7
2021-10-26T02:25:03,42.805,6.029,-0.039,-0.008,-0.013,101.0,101.0,102.0,13.4,1505.2,331.4,-0.8,1.8,2470.589,13.28,0.039,258.4
2021-10-26T02:28:03,42.805,6.029,-0.063,0.027,-0.008,101.0,101.0,100.0,13.4,1505.2,331.8,-0.8,1.8,2470.588,13.28,0.068,293.2
2021-10-26T02:31:03,42.805,6.029,-0.022,0.024,0.004,101.0,101.0,100.0,13.4,1505.2,331.8,-0.8,1.8,2470.582,13.28,0.032,317.5
2021-10-26T02:34:03,42.805,6.029,-0.035,-0.004,-0.026,102.0,102.0,100.0,13.4,1505.2,327.4,-0.8,1.8,2470.573,13.28,0.035,263.5
2021-10-26T02:37:03,42.805,6.029,-0.03,0.013,-0.005,102.0,100.0,100.0,13.4,1505.2,329.6,-0.7,1.8,2470.571,13.28,0.032,293.4
2021-10-26T02:40:03,42.805,6.029,-0.049,0.019,-0.008,102.0,102.0,100.0,13.3,1505.2,329.9,-0.7,1.8,2470.627,13.28,0.052,291.2
2021-10-26T02:43:03,42.805,6.029,-0.033,0.014,-0.027,101.0,101.0,100.0,13.4,1505.2,327.5,-0.8,1.8,2470.521,13.28,0.035,293.0
2021-10-26T02:46:03,42.805,6.029,-0.045,0.0,-0.011,101.0,101.0,100.0,13.4,1505.2,328.3,-0.8,1.8,2470.538,13.28,0.045,270.0
2021-10-26T02:49:03,42.805,6.029,-0.034,0.009,-0.006,102.0,101.0,100.0,13.4,1505.2,328.9,-0.8,1.9,2470.56,13.28,0.035,284.8
2021-10-26T02:52:03,42.805,6.029,-0.036,0.007,-0.017,102.0,102.0,101.0,13.4,1505.2,328.8,-0.7,1.8,2470.55,13.28,0.036,281.0
2021-10-26T02:55:03,42.805,6.029,-0.043,0.001,-0.035,102.0,101.0,100.0,13.4,1505.2,327.3,-0.7,1.8,2470.5,13.28,0.043,271.3
2021-10-26T02:58:03,42.805,6.029,-0.05,0.024,0.007,102.0,100.0,101.0,13.4,1505.2,331.6,-0.7,1.8,2470.56,13.28,0.055,295.6
2021-10-26T03:04:03,42.805,6.029,-0.04,0.009,-0.012,102.0,101.0,101.0,13.4,1505.2,327.5,-0.7,1.8,2470.563,13.28,0.041,282.7
2021-10-26T03:07:03,42.805,6.029,-0.041,0.002,-0.04,99.0,101.0,102.0,13.4,1505.2,328.4,-0.8,1.8,2470.595,13.28,0.041,272.8
2021-10-26T03:10:03,42.805,6.029,-0.031,0.008,-0.027,102.0,102.0,101.0,13.4,1505.2,327.6,-0.7,1.8,2470.579,13.28,0.032,284.5
2021-10-26T03:13:03,42.805,6.029,-0.043,0.01,0.019,103.0,100.0,100.0,13.3,1505.2,328.5,-0.8,1.8,2470.572,13.28,0.044,283.1
2021-10-26T03:16:03,42.805,6.029,-0.056,0.015,0.004,102.0,102.0,99.0,13.4,1505.2,328.7,-0.8,1.8,2470.598,13.28,0.057,285.0
2021-10-26T03:19:03,42.805,6.029,-0.057,0.012,-0.01,102.0,101.0,100.0,13.4,1505.2,328.7,-0.8,1.8,2470.536,13.28,0.058,281.9
2021-10-26T03:22:03,42.805,6.029,-0.046,0.015,-0.027,102.0,101.0,101.0,13.4,1505.2,326.7,-0.8,1.8,2470.549,13.28,0.048,288.1
2021-10-26T03:25:03,42.805,6.029,-0.034,0.017,0.017,102.0,101.0,101.0,13.4,1505.2,327.7,-0.7,1.8,2470.544,13.28,0.038,296.6
2021-10-26T03:28:03,42.805,6.029,-0.048,0.033,0.006,101.0,102.0,101.0,13.4,1505.2,329.3,-0.7,1.8,2470.567,13.28,0.058,304.5
2021-10-26T03:31:03,42.805,6.029,-0.046,0.016,0.005,102.0,102.0,100.0,13.4,1505.2,325.9,-0.8,1.8,2470.555,13.28,0.048,289.2
2021-10-26T03:34:03,42.805,6.029,-0.055,0.01,-0.02,102.0,99.0,101.0,13.4,1505.2,329.2,-0.8,1.8,2470.583,13.28,0.055,280.3
2021-10-26T03:37:03,42.805,6.029,-0.043,0.005,-0.023,103.0,102.0,100.0,13.4,1505.2,331.1,-0.7,1.8,2470.555,13.28,0.043,276.6
2021-10-26T03:40:03,42.805,6.029,-0.026,0.008,0.002,103.0,100.0,99.0,13.3,1505.2,331.2,-0.7,1.8,2470.554,13.28,0.027,287.1
2021-10-26T03:43:03,42.805,6.029,-0.044,0.033,-0.001,101.0,101.0,100.0,13.4,1505.2,330.9,-0.7,1.8,2470.574,13.28,0.055,306.9
2021-10-26T03:46:03,42.805,6.029,-0.038,0.024,0.004,102.0,101.0,101.0,13.4,1505.2,330.9,-0.7,1.8,2470.534,13.28,0.044,302.3
2021-10-26T03:49:03,42.805,6.029,-0.042,0.005,-0.012,101.0,101.0,100.0,13.4,1505.2,331.4,-0.7,1.8,2470.55,13.28,0.042,276.8
2021-10-26T03:52:03,42.805,6.029,-0.038,0.001,-0.006,101.0,101.0,101.0,13.3,1505.2,327.1,-0.7,1.8,2470.543,13.28,0.038,271.5
2021-10-26T03:55:03,42.805,6.029,-0.04,0.01,-0.006,103.0,100.0,99.0,13.4,1505.2,330.9,-0.8,1.8,2470.551,13.28,0.041,284.0
2021-10-26T03:58:03,42.805,6.029,-0.028,0.012,-0.01,101.0,102.0,100.0,13.3,1505.2,328.6,-0.8,1.9,2470.584,13.28,0.03,293.2
2021-10-26T04:04:03,42.805,6.029,-0.053,0.026,0.006,102.0,100.0,100.0,13.4,1505.2,327.3,-0.8,1.8,2470.559,13.28,0.059,296.1
2021-10-26T04:07:03,42.805,6.029,-0.04,0.015,0.004,101.0,100.0,100.0,13.4,1505.2,329.4,-0.7,1.8,2470.593,13.28,0.042,290.6
2021-10-26T04:10:03,42.805,6.029,-0.055,0.024,-0.019,101.0,101.0,100.0,13.3,1505.2,326.5,-0.8,1.8,2470.605,13.28,0.06,293.6
2021-10-26T04:13:03,42.805,6.029,-0.047,0.003,-0.017,102.0,101.0,101.0,13.4,1505.2,329.3,-0.7,1.8,2470.596,13.28,0.047,273.6
2021-10-26T04:16:03,42.805,6.029,-0.049,0.013,0.0,102.0,100.0,100.0,13.4,1505.2,328.5,-0.8,1.8,2470.551,13.28,0.05,284.9
2021-10-26T04:19:03,42.805,6.029,-0.03,0.03,0.018,100.0,101.0,101.0,13.3,1505.2,326.4,-0.7,1.8,2470.593,13.28,0.042,315.0
2021-10-26T04:22:03,42.805,6.029,-0.055,0.027,0.018,101.0,102.0,99.0,13.4,1505.2,330.4,-0.7,1.8,2470.585,13.28,0.061,296.1
2021-10-26T04:25:03,42.805,6.029,-0.048,0.015,0.003,101.0,101.0,101.0,13.3,1505.2,328.2,-0.7,1.8,2470.564,13.28,0.05,287.4
2021-10-26T04:28:03,42.805,6.029,-0.034,0.049,0.017,101.0,102.0,101.0,13.4,1505.2,329.4,-0.7,1.8,2470.56,13.28,0.059,325.2
2021-10-26T04:31:03,42.805,6.029,-0.017,0.012,0.001,101.0,101.0,100.0,13.4,1505.2,326.3,-0.7,1.8,2470.563,13.28,0.02,305.2
2021-10-26T04:34:03,42.805,6.029,-0.05,0.002,-0.021,102.0,102.0,100.0,13.3,1505.2,331.5,-0.7,1.8,2470.586,13.28,0.05,272.3
2021-10-26T04:37:03,42.805,6.029,-0.032,0.018,-0.006,101.0,102.0,101.0,13.3,1505.2,328.8,-0.8,1.8,2470.55,13.28,0.036,299.4
2021-10-26T04:40:03,42.805,6.029,-0.029,0.016,0.01,104.0,101.0,100.0,13.4,1505.2,331.4,-0.8,1.8,2470.557,13.28,0.033,298.9
2021-10-26T04:43:03,42.805,6.029,-0.037,0.005,-0.016,101.0,101.0,101.0,13.3,1505.2,329.5,-0.8,1.8,2470.58,13.28,0.037,277.7
2021-10-26T04:46:03,42.805,6.029,-0.039,0.009,-0.029,101.0,101.0,101.0,13.3,1505.2,327.4,-0.7,1.9,2470.576,13.28,0.04,283.0
2021-10-26T04:49:03,42.805,6.029,-0.033,-0.008,-0.022,101.0,101.0,101.0,13.3,1505.2,327.3,-0.7,1.8,2470.555,13.28,0.033,256.4
2021-10-26T04:52:03,42.805,6.029,-0.03,0.043,0.003,102.0,101.0,100.0,13.4,1505.2,327.0,-0.7,1.8,2470.538,13.28,0.052,325.1
2021-10-26T04:55:03,42.805,6.029,-0.034,0.019,-0.027,101.0,101.0,100.0,13.3,1505.2,331.5,-0.7,1.8,2470.555,13.28,0.038,299.2
2021-10-26T04:58:03,42.805,6.029,-0.059,0.034,0.012,101.0,101.0,100.0,13.4,1505.2,329.7,-0.8,1.8,2470.55,13.28,0.068,300.0
2021-10-26T05:04:03,42.805,6.029,-0.019,-0.005,-0.037,102.0,101.0,100.0,13.4,1505.2,330.1,-0.7,1.8,2470.584,13.28,0.019,255.3
2021-10-26T05:07:03,42.805,6.029,-0.055,0.006,-0.011,101.0,101.0,101.0,13.4,1505.2,331.6,-0.8,1.8,2470.566,13.28,0.055,276.2
2021-10-26T05:10:03,42.805,6.029,-0.049,0.026,0.01,101.0,101.0,101.0,13.4,1505.2,331.8,-0.8,1.8,2470.589,13.28,0.055,297.9
2021-10-26T05:13:03,42.805,6.029,-0.048,0.026,-0.016,100.0,102.0,100.0,13.4,1505.2,326.7,-0.8,1.8,2470.572,13.28,0.054,298.4
2021-10-26T05:16:03,42.805,6.029,-0.04,0.005,-0.049,101.0,101.0,100.0,13.4,1505.2,325.7,-0.8,1.8,2470.632,13.28,0.04,277.1
2021-10-26T05:19:03,42.805,6.029,-0.054,0.031,0.007,101.0,101.0,101.0,13.3,1505.2,328.8,-0.7,1.8,2470.55,13.28,0.062,299.9
2021-10-26T05:22:03,42.805,6.029,-0.03,0.025,0.0,101.0,101.0,100.0,13.4,1505.2,330.8,-0.7,1.8,2470.547,13.28,0.039,309.8
2021-10-26T05:25:03,42.805,6.029,-0.044,0.013,-0.042,101.0,101.0,100.0,13.4,1505.2,330.5,-0.7,1.8,2470.607,13.28,0.045,286.5
2021-10-26T05:28:03,42.805,6.029,-0.024,-0.003,0.0,101.0,101.0,100.0,13.4,1505.2,326.7,-0.7,1.8,2470.582,13.28,0.024,262.9
2021-10-26T05:31:03,42.805,6.029,-0.057,0.009,-0.043,101.0,102.0,100.0,13.4,1505.2,326.4,-0.8,1.8,2470.647,13.28,0.057,279.0
2021-10-26T05:34:03,42.805,6.029,-0.048,0.015,-0.017,101.0,101.0,100.0,13.3,1505.2,328.5,-0.7,1.8,2470.57,13.28,0.05,287.4
2021-10-26T05:37:03,42.805,6.029,-0.028,0.012,0.007,100.0,102.0,100.0,13.4,1505.2,327.8,-0.8,1.8,2470.59,13.28,0.03,293.2
2021-10-26T05:40:03,42.805,6.029,-0.043,0.009,-0.022,101.0,100.0,101.0,13.4,1505.2,330.3,-0.8,1.8,2470.59,13.28,0.043,281.8
2021-10-26T05:43:03,42.805,6.029,-0.044,0.021,-0.013,102.0,101.0,100.0,13.4,1505.2,332.3,-0.7,1.8,2470.614,13.28,0.048,295.5
2021-10-26T05:46:03,42.805,6.029,-0.029,0.006,-0.005,101.0,101.0,101.0,13.4,1505.2,327.5,-0.8,1.8,2470.575,13.28,0.029,281.7
2021-10-26T05:49:03,42.805,6.029,-0.074,0.016,-0.021,100.0,101.0,101.0,13.4,1505.2,326.6,-0.8,1.8,2470.58,13.28,0.075,282.2
2021-10-26T05:52:03,42.805,6.029,-0.039,0.014,0.009,101.0,101.0,101.0,13.3,1505.2,329.1,-0.8,1.8,2470.563,13.28,0.041,289.7
2021-10-26T05:55:03,42.805,6.029,-0.031,0.009,0.019,102.0,100.0,100.0,13.3,1505.2,326.7,-0.7,1.8,2470.583,13.28,0.032,286.2
2021-10-26T05:58:03,42.805,6.029,-0.028,0.016,-0.001,101.0,102.0,101.0,13.4,1505.2,331.0,-0.8,1.8,2470.586,13.28,0.032,299.7
2021-10-26T06:04:03,42.805,6.029,-0.031,0.011,-0.04,101.0,102.0,102.0,13.4,1505.2,328.3,-0.8,1.8,2470.637,13.28,0.032,289.5
2021-10-26T06:07:03,42.805,6.029,-0.056,0.014,-0.019,102.0,100.0,100.0,13.3,1505.2,327.3,-0.8,1.8,2470.635,13.28,0.057,284.0
2021-10-26T06:10:03,42.805,6.029,-0.039,0.006,-0.038,101.0,100.0,100.0,13.4,1505.2,329.8,-0.7,1.8,2470.634,13.28,0.039,278.7
2021-10-26T06:13:03,42.805,6.029,-0.06,0.004,0.006,101.0,102.0,100.0,13.3,1505.2,326.4,-0.7,1.8,2470.568,13.28,0.06,273.8
2021-10-26T06:16:03,42.805,6.029,-0.039,0.008,-0.018,102.0,102.0,100.0,13.3,1505.2,331.6,-0.8,1.8,2470.622,13.28,0.039,281.6
2021-10-26T06:19:03,42.805,6.029,-0.049,0.017,0.0,101.0,101.0,101.0,13.4,1505.2,329.7,-0.8,1.8,2470.635,13.28,0.051,289.1
2021-10-26T06:22:03,42.805,6.029,-0.025,0.014,-0.004,102.0,102.0,100.0,13.4,1505.2,329.6,-0.7,1.8,2470.613,13.28,0.028,299.3
2021-10-26T06:25:03,42.805,6.029,-0.048,0.02,-0.014,102.0,99.0,101.0,13.4,1505.2,330.3,-0.8,1.8,2470.604,13.28,0.052,292.6
2021-10-26T06:28:03,42.805,6.029,-0.051,0.003,-0.04,99.0,102.0,101.0,13.4,1505.2,331.0,-0.7,1.8,2470.58,13.28,0.051,273.4
2021-10-26T06:31:03,42.805,6.029,-0.046,0.024,-0.019,103.0,100.0,100.0,13.3,1505.2,329.4,-0.8,1.8,2470.606,13.28,0.051,297.6
2021-10-26T06:34:03,42.805,6.029,-0.032,0.025,-0.004,102.0,101.0,101.0,13.3,1505.2,331.5,-0.8,1.8,2470.57,13.28,0.04,308.0
2021-10-26T06:37:03,42.805,6.029,-0.045,0.013,-0.013,100.0,102.0,101.0,13.4,1505.2,331.6,-0.8,1.8,2470.62,13.28,0.046,286.1
2021-10-26T06:40:03,42.805,6.029,-0.047,-0.008,-0.044,101.0,101.0,100.0,13.4,1505.2,330.8,-0.8,1.8,2470.625,13.28,0.047,260.3
2021-10-26T06:43:03,42.805,6.029,-0.013,0.007,-0.011,101.0,100.0,101.0,13.4,1505.2,331.0,-0.8,1.9,2470.612,13.28,0.014,298.3
2021-10-26T06:46:03,42.805,6.029,-0.04,0.002,-0.003,102.0,101.0,101.0,13.4,1505.2,326.3,-0.7,1.8,2470.624,13.28,0.04,272.9
2021-10-26T06:49:03,42.805,6.029,-0.032,-0.003,0.0,102.0,101.0,100.0,13.4,1505.2,325.3,-0.8,1.8,2470.633,13.28,0.032,264.6
2021-10-26T06:52:03,42.805,6.029,-0.074,0.008,-0.03,101.0,101.0,100.0,13.4,1505.2,325.7,-0.8,1.8,2470.614,13.28,0.074,276.2
2021-10-26T06:55:03,42.805,6.029,-0.037,0.004,-0.02,101.0,100.0,101.0,13.4,1505.2,327.6,-0.7,1.8,2470.604,13.28,0.037,276.2
2021-10-26T06:58:03,42.805,6.029,-0.061,0.003,-0.02,102.0,100.0,101.0,13.4,1505.2,329.1,-0.7,1.9,2470.634,13.28,0.061,272.8
2021-10-26T07:04:03,42.805,6.029,-0.06,-0.009,-0.028,101.0,101.0,100.0,13.4,1505.2,329.5,-0.7,1.8,2470.691,13.28,0.06,261.5
2021-10-26T07:07:03,42.805,6.029,-0.04,-0.001,-0.023,102.0,102.0,100.0,13.4,1505.2,327.4,-0.8,1.8,2470.638,13.28,0.04,268.6
2021-10-26T07:10:03,42.805,6.029,-0.053,0.017,-0.014,101.0,101.0,100.0,13.4,1505.2,329.8,-0.7,1.8,2470.669,13.28,0.055,287.8
2021-10-26T07:13:03,42.805,6.029,-0.045,0.004,-0.01,102.0,102.0,100.0,13.4,1505.2,330.4,-0.7,1.8,2470.641,13.28,0.045,275.1
2021-10-26T07:16:03,42.805,6.029,-0.052,0.0,-0.029,102.0,102.0,100.0,13.3,1505.2,331.5,-0.7,1.8,2470.67,13.28,0.052,270.0
2021-10-26T07:19:03,42.805,6.029,-0.037,0.003,-0.028,102.0,101.0,100.0,13.4,1505.2,329.8,-0.8,1.9,2470.626,13.28,0.037,274.6
2021-10-26T07:22:03,42.805,6.029,-0.039,-0.004,-0.035,102.0,101.0,101.0,13.4,1505.2,328.1,-0.8,1.9,2470.692,13.28,0.039,264.1
2021-10-26T07:25:03,42.805,6.029,-0.036,0.011,-0.034,101.0,102.0,102.0,13.4,1505.2,327.2,-0.8,1.8,2470.713,13.28,0.037,287.0
2021-10-26T07:28:03,42.805,6.029,-0.033,0.002,-0.001,102.0,102.0,100.0,13.4,1505.2,327.4,-0.8,1.8,2470.682,13.28,0.033,273.5
2021-10-26T07:31:03,42.805,6.029,-0.037,0.005,-0.019,102.0,101.0,101.0,13.4,1505.2,328.9,-0.7,1.9,2470.647,13.28,0.037,277.7
2021-10-26T07:34:03,42.805,6.029,-0.061,0.018,-0.001,103.0,101.0,101.0,13.4,1505.2,330.7,-0.7,1.8,2470.679,13.28,0.063,286.4
2021-10-26T07:37:03,42.805,6.029,-0.026,-0.007,0.003,102.0,101.0,100.0,13.3,1505.2,326.1,-0.7,1.8,2470.687,13.28,0.026,254.9
2021-10-26T07:40:03,42.805,6.029,-0.046,0.021,-0.021,103.0,102.0,101.0,13.4,1505.2,327.8,-0.8,1.8,2470.666,13.28,0.05,294.5
2021-10-26T07:43:03,42.805,6.029,-0.051,0.026,-0.01,103.0,102.0,100.0,13.3,1505.2,329.8,-0.8,1.9,2470.69,13.28,0.057,297.0
2021-10-26T07:46:03,42.805,6.029,-0.065,0.011,-0.018,101.0,102.0,101.0,13.4,1505.2,327.7,-0.7,1.8,2470.681,13.28,0.065,279.6
2021-10-26T07:49:03,42.805,6.029,-0.041,0.006,-0.008,104.0,102.0,100.0,13.4,1505.2,331.4,-0.7,1.8,2470.694,13.28,0.041,278.3
2021-10-26T07:52:03,42.805,6.029,-0.042,0.015,-0.03,103.0,103.0,100.0,13.4,1505.2,331.4,-0.8,1.9,2470.674,13.28,0.044,289.6
2021-10-26T07:55:03,42.805,6.029,-0.04,0.006,-0.03,103.0,102.0,101.0,13.4,1505.2,331.0,-0.7,1.8,2470.669,13.28,0.04,278.5
2021-10-26T07:58:03,42.805,6.029,-0.023,0.017,0.005,103.0,102.0,101.0,13.4,1505.2,326.3,-0.7,1.8,2470.715,13.28,0.028,306.5
2021-10-26T08:04:03,42.805,6.029,-0.041,0.023,0.0,102.0,102.0,101.0,13.4,1505.2,330.4,-0.8,1.8,2470.71,13.28,0.047,299.3
2021-10-26T08:07:03,42.805,6.029,-0.04,0.003,-0.024,102.0,103.0,102.0,13.3,1505.2,328.2,-0.7,1.8,2470.713,13.28,0.04,274.3
2021-10-26T08:10:03,42.805,6.029,-0.058,0.009,-0.005,102.0,102.0,101.0,13.4,1505.2,329.7,-0.7,1.8,2470.755,13.28,0.058,278.8
2021-10-26T08:13:03,42.805,6.029,-0.047,0.019,-0.019,103.0,102.0,102.0,13.3,1505.2,326.1,-0.7,1.8,2470.693,13.28,0.05,292.0
2021-10-26T08:16:03,42.805,6.029,-0.035,0.019,-0.02,102.0,102.0,101.0,13.4,1505.2,331.6,-0.7,1.8,2470.707,13.28,0.039,298.5
2021-10-26T08:19:03,42.805,6.029,-0.052,0.018,-0.024,103.0,103.0,101.0,13.4,1505.2,327.1,-0.8,1.8,2470.677,13.28,0.055,289.1
2021-10-26T08:22:03,42.805,6.029,-0.042,0.023,-0.002,102.0,101.0,101.0,13.4,1505.2,328.6,-0.7,1.8,2470.683,13.28,0.047,298.7
2021-10-26T08:25:03,42.805,6.029,-0.049,0.023,0.022,102.0,102.0,101.0,13.3,1505.2,330.4,-0.8,1.8,2470.734,13.28,0.054,295.1
2021-10-26T08:28:03,42.805,6.029,-0.045,0.018,-0.007,101.0,102.0,101.0,13.3,1505.2,330.3,-0.8,1.9,2470.716,13.28,0.048,291.8
2021-10-26T08:31:03,42.805,6.029,-0.019,0.021,0.003,103.0,102.0,102.0,13.3,1505.2,328.0,-0.7,1.8,2470.717,13.28,0.028,317.9
2021-10-26T08:34:03,42.805,6.029,-0.021,0.015,0.005,102.0,102.0,101.0,13.3,1505.2,329.6,-0.8,1.8,2470.702,13.28,0.025,305.5
2021-10-26T08:37:03,42.805,6.029,-0.039,0.028,0.001,104.0,101.0,100.0,13.4,1505.2,329.2,-0.7,1.8,2470.697,13.28,0.048,305.7
2021-10-26T08:40:03,42.805,6.029,-0.041,0.018,-0.035,103.0,102.0,101.0,13.4,1505.2,329.6,-0.7,1.8,2470.657,13.28,0.044,293.7
2021-10-26T08:43:03,42.805,6.029,-0.047,0.045,0.002,102.0,102.0,101.0,13.4,1505.2,329.1,-0.7,1.8,2470.727,13.28,0.065,313.8
2021-10-26T08:46:03,42.805,6.029,-0.048,0.014,0.012,104.0,101.0,101.0,13.3,1505.2,325.9,-0.8,1.8,2470.727,13.28,0.05,286.3
2021-10-26T08:49:03,42.805,6.029,-0.017,0.006,0.001,103.0,102.0,100.0,13.4,1505.2,328.1,-0.8,1.8,2470.697,13.28,0.018,289.4
2021-10-26T08:52:03,42.805,6.029,-0.032,0.019,-0.033,103.0,102.0,100.0,13.4,1505.2,328.7,-0.8,1.8,2470.74,13.28,0.037,300.7
2021-10-26T08:55:03,42.805,6.029,-0.055,0.034,0.0,102.0,101.0,101.0,13.3,1505.2,328.2,-0.8,1.8,2470.686,13.28,0.064,301.7
2021-10-26T08:58:03,42.805,6.029,-0.048,0.016,-0.019,102.0,102.0,100.0,13.4,1505.2,330.6,-0.7,1.8,2470.72,13.28,0.05,288.4
2021-10-26T09:04:03,42.805,6.029,-0.052,0.034,-0.005,102.0,101.0,100.0,13.3,1505.2,331.2,-0.8,1.8,2470.748,13.28,0.062,303.2
2021-10-26T09:07:03,42.805,6.029,-0.048,0.015,-0.02,102.0,103.0,100.0,13.4,1505.2,331.3,-0.8,1.8,2470.746,13.28,0.05,287.4
2021-10-26T09:10:03,42.805,6.029,-0.058,0.033,-0.031,102.0,100.0,102.0,13.4,1505.2,327.5,-0.8,1.8,2470.758,13.28,0.066,299.6
2021-10-26T09:13:03,42.805,6.029,-0.03,0.017,-0.03,101.0,102.0,101.0,13.4,1505.2,326.9,-0.7,1.8,2470.736,13.28,0.034,299.5
2021-10-26T09:16:03,42.805,6.029,-0.027,0.022,-0.012,101.0,103.0,100.0,13.3,1505.2,331.2,-0.7,1.8,2470.76,13.28,0.034,309.2
2021-10-26T09:19:03,42.805,6.029,-0.047,0.032,0.02,101.0,102.0,101.0,13.4,1505.2,326.7,-0.8,1.8,2470.757,13.28,0.056,304.2
2021-10-26T09:22:03,42.805,6.029,-0.052,0.013,0.0,102.0,102.0,101.0,13.3,1505.2,327.5,-0.7,1.8,2470.732,13.28,0.053,284.0
2021-10-26T09:25:03,42.805,6.029,-0.037,0.028,-0.011,102.0,102.0,101.0,13.3,1505.2,332.1,-0.8,1.8,2470.725,13.28,0.046,307.1
2021-10-26T09:28:03,42.805,6.029,-0.056,0.034,-0.013,102.0,102.0,101.0,13.4,1505.2,330.3,-0.8,1.8,2470.717,13.28,0.065,301.3
2021-10-26T09:31:03,42.805,6.029,-0.056,0.014,0.006,103.0,101.0,101.0,13.3,1505.2,326.9,-0.7,1.8,2470.731,13.28,0.057,284.0
2021-10-26T09:34:03,42.805,6.029,-0.03,0.009,0.011,102.0,101.0,101.0,13.3,1505.2,324.6,-0.7,1.8,2470.7,13.28,0.031,286.7
2021-10-26T09:37:03,42.805,6.029,-0.04,-0.005,-0.049,102.0,101.0,102.0,13.4,1505.2,329.5,-0.8,1.9,2470.714,13.28,0.04,262.9
2021-10-26T09:40:03,42.805,6.029,-0.038,0.003,0.012,101.0,101.0,101.0,13.4,1505.2,327.0,-0.8,1.8,2470.76,13.28,0.038,274.5
2021-10-26T09:43:03,42.805,6.029,-0.043,0.008,0.003,102.0,102.0,101.0,13.4,1505.2,331.3,-0.8,1.9,2470.756,13.28,0.043,280.5
2021-10-26T09:46:03,42.805,6.029,-0.046,0.016,-0.013,102.0,102.0,100.0,13.3,1505.2,327.8,-0.7,1.8,2470.725,13.28,0.048,289.2
2021-10-26T09:49:03,42.805,6.029,-0.049,0.026,-0.006,100.0,102.0,101.0,13.4,1505.2,331.0,-0.8,1.8,2470.72,13.28,0.055,297.9
2021-10-26T09:52:03,42.805,6.029,-0.028,0.022,0.017,103.0,103.0,101.0,13.4,1505.2,325.7,-0.8,1.8,2470.692,13.28,0.035,308.2
2021-10-26T09:55:03,42.805,6.029,-0.042,0.012,0.003,101.0,102.0,100.0,13.4,1505.2,325.5,-0.8,1.8,2470.729,13.28,0.043,285.9
2021-10-26T09:58:03,42.805,6.029,-0.045,-0.006,-0.011,101.0,101.0,101.0,13.3,1505.2,328.4,-0.8,1.8,2470.725,13.28,0.045,262.4
2021-10-26T10:04:03,42.805,6.029,-0.044,0.039,0.004,102.0,102.0,101.0,13.4,1505.2,330.9,-0.8,1.8,2470.742,13.28,0.058,311.6